M I D A S
Marine Information and Data Acquisition System
Tripno 2231 of the Zeeleeuw from 2011-09-19 08:00:00 to 2011-09-19 17:00:00
Back to CruiseResearch ActivitiesStationsMapUnderway DataData graphs

EquipmentUnitsComment
TimeDGPSUTC
LatitudeDGPSDM.mWGS84
LongitudeDGPSDM.mWGS84
TemperatureSBE03/SBE38deg celciusITS90
ConductivitySBE21S/mITS90
SalinitySBE21 Practical Salinity Units
ChlorophylAChelsea fluorimeterg/lCalibrated in Aceton
Missing or incorrect values are displayed as -999
Sea surface data collected by the RV Zeeleeuw from 2011-09-19 08:00:00 to 2011-09-19 17:00:00
                                                                                    Next 1000 lines
Time Latitude Longitude Temperature Conductivity Salinity ChlorophylA
2011-09-19 08:00:20 51°17.752 2°51.72 -999 -999 -999 -999
2011-09-19 08:00:30 51°17.776 2°51.689 -999 -999 -999 -999
2011-09-19 08:00:40 51°17.805 2°51.651 -999 -999 -999 -999
2011-09-19 08:00:50 51°17.829 2°51.62 -999 -999 -999 -999
2011-09-19 08:01:00 51°17.857 2°51.581 -999 -999 -999 -999
2011-09-19 08:01:10 51°17.881 2°51.549 -999 -999 -999 -999
2011-09-19 08:01:20 51°17.909 2°51.509 -999 -999 -999 -999
2011-09-19 08:01:30 51°17.931 2°51.475 -999 -999 -999 -999
2011-09-19 08:01:40 51°17.957 2°51.432 -999 -999 -999 -999
2011-09-19 08:01:50 51°17.98 2°51.399 -999 -999 -999 -999
2011-09-19 08:02:00 51°18.007 2°51.359 -999 -999 -999 -999
2011-09-19 08:02:10 51°18.028 2°51.33 -999 -999 -999 -999
2011-09-19 08:02:20 51°18.056 2°51.291 -999 -999 -999 -999
2011-09-19 08:02:30 51°18.08 2°51.259 -999 -999 -999 -999
2011-09-19 08:02:40 51°18.109 2°51.221 -999 -999 -999 -999
2011-09-19 08:02:50 51°18.133 2°51.19 -999 -999 -999 -999
2011-09-19 08:03:00 51°18.162 2°51.153 -999 -999 -999 -999
2011-09-19 08:03:10 51°18.184 2°51.126 -999 -999 -999 -999
2011-09-19 08:03:20 51°18.21 2°51.097 -999 -999 -999 -999
2011-09-19 08:03:30 51°18.23 2°51.076 -999 -999 -999 -999
2011-09-19 08:03:40 51°18.253 2°51.051 -999 -999 -999 -999
2011-09-19 08:03:50 51°18.271 2°51.031 -999 -999 -999 -999
2011-09-19 08:04:00 51°18.293 2°51.008 -999 -999 -999 -999
2011-09-19 08:04:10 51°18.31 2°50.988 -999 -999 -999 -999
2011-09-19 08:04:20 51°18.329 2°50.967 -999 -999 -999 -999
2011-09-19 08:04:30 51°18.343 2°50.951 -999 -999 -999 -999
2011-09-19 08:04:40 51°18.357 2°50.933 -999 -999 -999 -999
2011-09-19 08:04:50 51°18.367 2°50.919 -999 -999 -999 -999
2011-09-19 08:05:00 51°18.377 2°50.904 -999 -999 -999 -999
2011-09-19 08:05:10 51°18.386 2°50.895 -999 -999 -999 -999
2011-09-19 08:05:20 51°18.396 2°50.886 -999 -999 -999 -999
2011-09-19 08:05:30 51°18.405 2°50.88 -999 -999 -999 -999
2011-09-19 08:05:40 51°18.414 2°50.876 -999 -999 -999 -999
2011-09-19 08:05:50 51°18.422 2°50.876 -999 -999 -999 -999
2011-09-19 08:06:00 51°18.431 2°50.877 -999 -999 -999 -999
2011-09-19 08:06:10 51°18.437 2°50.881 -999 -999 -999 -999
2011-09-19 08:06:20 51°18.445 2°50.887 -999 -999 -999 -999
2011-09-19 08:06:30 51°18.451 2°50.894 -999 -999 -999 -999
2011-09-19 08:06:40 51°18.458 2°50.901 -999 -999 -999 -999
2011-09-19 08:06:50 51°18.463 2°50.907 -999 -999 -999 -999
2011-09-19 08:07:00 51°18.471 2°50.914 -999 -999 -999 -999
2011-09-19 08:07:10 51°18.478 2°50.92 -999 -999 -999 -999
2011-09-19 08:07:20 51°18.486 2°50.925 -999 -999 -999 -999
2011-09-19 08:07:30 51°18.492 2°50.929 -999 -999 -999 -999
2011-09-19 08:07:40 51°18.5 2°50.934 -999 -999 -999 -999
2011-09-19 08:07:50 51°18.507 2°50.939 -999 -999 -999 -999
2011-09-19 08:08:00 51°18.514 2°50.944 -999 -999 -999 -999
2011-09-19 08:08:10 51°18.519 2°50.948 -999 -999 -999 -999
2011-09-19 08:08:20 51°18.525 2°50.954 -999 -999 -999 -999
2011-09-19 08:08:30 51°18.528 2°50.957 -999 -999 -999 -999
2011-09-19 08:08:40 51°18.531 2°50.96 -999 -999 -999 -999
2011-09-19 08:08:50 51°18.531 2°50.961 -999 -999 -999 -999
2011-09-19 08:09:00 51°18.531 2°50.962 -999 -999 -999 -999
2011-09-19 08:09:10 51°18.531 2°50.963 -999 -999 -999 -999
2011-09-19 08:09:20 51°18.531 2°50.965 -999 -999 -999 -999
2011-09-19 08:09:30 51°18.53 2°50.966 -999 -999 -999 -999
2011-09-19 08:09:40 51°18.53 2°50.967 -999 -999 -999 -999
2011-09-19 08:09:50 51°18.529 2°50.968 -999 -999 -999 -999
2011-09-19 08:10:00 51°18.529 2°50.97 -999 -999 -999 -999
2011-09-19 08:10:10 51°18.529 2°50.97 -999 -999 -999 -999
2011-09-19 08:10:20 51°18.528 2°50.972 -999 -999 -999 -999
2011-09-19 08:10:30 51°18.528 2°50.973 -999 -999 -999 -999
2011-09-19 08:10:40 51°18.527 2°50.974 -999 -999 -999 -999
2011-09-19 08:10:50 51°18.526 2°50.975 -999 -999 -999 -999
2011-09-19 08:11:00 51°18.526 2°50.977 -999 -999 -999 -999
2011-09-19 08:11:10 51°18.525 2°50.978 -999 -999 -999 -999
2011-09-19 08:11:20 51°18.524 2°50.98 -999 -999 -999 -999
2011-09-19 08:11:30 51°18.524 2°50.981 -999 -999 -999 -999
2011-09-19 08:11:40 51°18.523 2°50.981 -999 -999 -999 -999
2011-09-19 08:11:50 51°18.522 2°50.982 -999 -999 -999 -999
2011-09-19 08:12:00 51°18.521 2°50.983 -999 -999 -999 -999
2011-09-19 08:12:10 51°18.52 2°50.984 -999 -999 -999 -999
2011-09-19 08:12:20 51°18.52 2°50.985 -999 -999 -999 -999
2011-09-19 08:12:30 51°18.519 2°50.986 -999 -999 -999 -999
2011-09-19 08:12:40 51°18.518 2°50.987 -999 -999 -999 -999
2011-09-19 08:12:50 51°18.517 2°50.988 -999 -999 -999 -999
2011-09-19 08:13:00 51°18.517 2°50.99 -999 -999 -999 -999
2011-09-19 08:13:10 51°18.516 2°50.99 -999 -999 -999 -999
2011-09-19 08:13:20 51°18.515 2°50.991 -999 -999 -999 -999
2011-09-19 08:13:30 51°18.514 2°50.992 -999 -999 -999 -999
2011-09-19 08:13:40 51°18.513 2°50.993 -999 -999 -999 -999
2011-09-19 08:13:50 51°18.512 2°50.994 -999 -999 -999 -999
2011-09-19 08:14:00 51°18.511 2°50.995 -999 -999 -999 -999
2011-09-19 08:14:10 51°18.511 2°50.996 -999 -999 -999 -999
2011-09-19 08:14:20 51°18.51 2°50.997 -999 -999 -999 -999
2011-09-19 08:14:30 51°18.509 2°50.998 -999 -999 -999 -999
2011-09-19 08:14:40 51°18.508 2°51 -999 -999 -999 -999
2011-09-19 08:14:50 51°18.507 2°51 -999 -999 -999 -999
2011-09-19 08:15:00 51°18.507 2°51.001 -999 -999 -999 -999
2011-09-19 08:15:10 51°18.506 2°51.002 -999 -999 -999 -999
2011-09-19 08:15:20 51°18.505 2°51.003 -999 -999 -999 -999
2011-09-19 08:15:30 51°18.504 2°51.004 -999 -999 -999 -999
2011-09-19 08:15:40 51°18.503 2°51.005 -999 -999 -999 -999
2011-09-19 08:15:50 51°18.502 2°51.006 -999 -999 -999 -999
2011-09-19 08:16:00 51°18.502 2°51.008 -999 -999 -999 -999
2011-09-19 08:16:10 51°18.501 2°51.009 -999 -999 -999 -999
2011-09-19 08:16:20 51°18.501 2°51.01 -999 -999 -999 -999
2011-09-19 08:16:30 51°18.5 2°51.011 -999 -999 -999 -999
2011-09-19 08:16:40 51°18.5 2°51.013 -999 -999 -999 -999
2011-09-19 08:16:50 51°18.499 2°51.014 -999 -999 -999 -999
2011-09-19 08:17:00 51°18.498 2°51.015 -999 -999 -999 -999
2011-09-19 08:17:10 51°18.498 2°51.016 -999 -999 -999 -999
2011-09-19 08:17:20 51°18.497 2°51.017 -999 -999 -999 -999
2011-09-19 08:17:30 51°18.497 2°51.018 -999 -999 -999 -999
2011-09-19 08:17:40 51°18.496 2°51.019 -999 -999 -999 -999
2011-09-19 08:17:50 51°18.496 2°51.02 -999 -999 -999 -999
2011-09-19 08:18:00 51°18.495 2°51.021 -999 -999 -999 -999
2011-09-19 08:18:10 51°18.495 2°51.022 -999 -999 -999 -999
2011-09-19 08:18:20 51°18.494 2°51.023 -999 -999 -999 -999
2011-09-19 08:18:30 51°18.494 2°51.024 -999 -999 -999 -999
2011-09-19 08:18:40 51°18.493 2°51.026 -999 -999 -999 -999
2011-09-19 08:18:50 51°18.492 2°51.026 -999 -999 -999 -999
2011-09-19 08:19:00 51°18.492 2°51.027 -999 -999 -999 -999
2011-09-19 08:19:10 51°18.491 2°51.028 -999 -999 -999 -999
2011-09-19 08:19:20 51°18.49 2°51.03 -999 -999 -999 -999
2011-09-19 08:19:30 51°18.489 2°51.03 -999 -999 -999 -999
2011-09-19 08:19:40 51°18.488 2°51.031 -999 -999 -999 -999
2011-09-19 08:19:50 51°18.487 2°51.032 -999 -999 -999 -999
2011-09-19 08:20:00 51°18.487 2°51.033 -999 -999 -999 -999
2011-09-19 08:20:10 51°18.486 2°51.034 -999 -999 -999 -999
2011-09-19 08:20:20 51°18.485 2°51.036 -999 -999 -999 -999
2011-09-19 08:20:30 51°18.484 2°51.036 -999 -999 -999 -999
2011-09-19 08:20:40 51°18.483 2°51.037 -999 -999 -999 -999
2011-09-19 08:20:50 51°18.483 2°51.038 -999 -999 -999 -999
2011-09-19 08:21:00 51°18.482 2°51.039 -999 -999 -999 -999
2011-09-19 08:21:10 51°18.481 2°51.04 -999 -999 -999 -999
2011-09-19 08:21:20 51°18.481 2°51.041 -999 -999 -999 -999
2011-09-19 08:21:30 51°18.48 2°51.042 -999 -999 -999 -999
2011-09-19 08:21:40 51°18.479 2°51.042 -999 -999 -999 -999
2011-09-19 08:21:50 51°18.478 2°51.044 -999 -999 -999 -999
2011-09-19 08:22:00 51°18.477 2°51.044 -999 -999 -999 -999
2011-09-19 08:22:10 51°18.477 2°51.045 -999 -999 -999 -999
2011-09-19 08:22:20 51°18.476 2°51.046 -999 -999 -999 -999
2011-09-19 08:22:30 51°18.475 2°51.047 -999 -999 -999 -999
2011-09-19 08:22:40 51°18.475 2°51.047 -999 -999 -999 -999
2011-09-19 08:22:50 51°18.474 2°51.048 -999 -999 -999 -999
2011-09-19 08:23:00 51°18.474 2°51.049 -999 -999 -999 -999
2011-09-19 08:23:10 51°18.473 2°51.05 -999 -999 -999 -999
2011-09-19 08:23:20 51°18.472 2°51.051 -999 -999 -999 -999
2011-09-19 08:23:30 51°18.472 2°51.052 -999 -999 -999 -999
2011-09-19 08:23:40 51°18.471 2°51.053 -999 -999 -999 -999
2011-09-19 08:23:50 51°18.471 2°51.054 -999 -999 -999 -999
2011-09-19 08:24:00 51°18.47 2°51.055 -999 -999 -999 -999
2011-09-19 08:24:10 51°18.469 2°51.055 -999 -999 -999 -999
2011-09-19 08:24:20 51°18.468 2°51.056 -999 -999 -999 -999
2011-09-19 08:24:30 51°18.468 2°51.057 -999 -999 -999 -999
2011-09-19 08:24:40 51°18.467 2°51.058 -999 -999 -999 -999
2011-09-19 08:24:50 51°18.466 2°51.059 -999 -999 -999 -999
2011-09-19 08:25:00 51°18.465 2°51.059 -999 -999 -999 -999
2011-09-19 08:25:10 51°18.464 2°51.06 -999 -999 -999 -999
2011-09-19 08:25:20 51°18.463 2°51.062 -999 -999 -999 -999
2011-09-19 08:25:30 51°18.462 2°51.062 -999 -999 -999 -999
2011-09-19 08:25:40 51°18.461 2°51.062 -999 -999 -999 -999
2011-09-19 08:25:50 51°18.46 2°51.063 -999 -999 -999 -999
2011-09-19 08:26:00 51°18.459 2°51.065 -999 -999 -999 -999
2011-09-19 08:26:10 51°18.458 2°51.065 -999 -999 -999 -999
2011-09-19 08:26:20 51°18.457 2°51.066 -999 -999 -999 -999
2011-09-19 08:26:30 51°18.456 2°51.068 -999 -999 -999 -999
2011-09-19 08:26:40 51°18.455 2°51.069 -999 -999 -999 -999
2011-09-19 08:26:50 51°18.454 2°51.069 -999 -999 -999 -999
2011-09-19 08:27:00 51°18.453 2°51.07 -999 -999 -999 -999
2011-09-19 08:27:10 51°18.452 2°51.071 -999 -999 -999 -999
2011-09-19 08:27:20 51°18.451 2°51.072 -999 -999 -999 -999
2011-09-19 08:27:30 51°18.45 2°51.073 -999 -999 -999 -999
2011-09-19 08:27:40 51°18.449 2°51.074 -999 -999 -999 -999
2011-09-19 08:27:50 51°18.448 2°51.075 -999 -999 -999 -999
2011-09-19 08:28:00 51°18.447 2°51.075 -999 -999 -999 -999
2011-09-19 08:28:10 51°18.446 2°51.076 -999 -999 -999 -999
2011-09-19 08:28:20 51°18.444 2°51.078 -999 -999 -999 -999
2011-09-19 08:28:30 51°18.444 2°51.078 -999 -999 -999 -999
2011-09-19 08:28:40 51°18.442 2°51.079 -999 -999 -999 -999
2011-09-19 08:28:50 51°18.442 2°51.08 -999 -999 -999 -999
2011-09-19 08:29:00 51°18.441 2°51.08 -999 -999 -999 -999
2011-09-19 08:29:10 51°18.44 2°51.081 -999 -999 -999 -999
2011-09-19 08:29:20 51°18.439 2°51.081 -999 -999 -999 -999
2011-09-19 08:29:30 51°18.439 2°51.082 -999 -999 -999 -999
2011-09-19 08:29:40 51°18.438 2°51.083 -999 -999 -999 -999
2011-09-19 08:29:50 51°18.436 2°51.084 -999 -999 -999 -999
2011-09-19 08:30:00 51°18.436 2°51.084 -999 -999 -999 -999
2011-09-19 08:30:10 51°18.435 2°51.085 -999 -999 -999 -999
2011-09-19 08:30:20 51°18.434 2°51.086 -999 -999 -999 -999
2011-09-19 08:30:30 51°18.433 2°51.087 -999 -999 -999 -999
2011-09-19 08:30:40 51°18.432 2°51.088 -999 -999 -999 -999
2011-09-19 08:30:50 51°18.431 2°51.088 -999 -999 -999 -999
2011-09-19 08:31:00 51°18.43 2°51.089 -999 -999 -999 -999
2011-09-19 08:31:10 51°18.429 2°51.089 -999 -999 -999 -999
2011-09-19 08:31:20 51°18.428 2°51.09 -999 -999 -999 -999
2011-09-19 08:31:30 51°18.427 2°51.09 -999 -999 -999 -999
2011-09-19 08:31:40 51°18.427 2°51.091 -999 -999 -999 -999
2011-09-19 08:31:50 51°18.427 2°51.093 -999 -999 -999 -999
2011-09-19 08:32:00 51°18.429 2°51.096 -999 -999 -999 -999
2011-09-19 08:32:10 51°18.433 2°51.1 -999 -999 -999 -999
2011-09-19 08:32:20 51°18.439 2°51.106 -999 -999 -999 -999
2011-09-19 08:32:30 51°18.447 2°51.115 -999 -999 -999 -999
2011-09-19 08:32:40 51°18.458 2°51.129 -999 -999 -999 -999
2011-09-19 08:32:50 51°18.468 2°51.146 -999 -999 -999 -999
2011-09-19 08:33:00 51°18.481 2°51.173 -999 -999 -999 -999
2011-09-19 08:33:10 51°18.49 2°51.203 -999 -999 -999 -999
2011-09-19 08:33:20 51°18.496 2°51.237 -999 -999 -999 -999
2011-09-19 08:33:30 51°18.503 2°51.275 -999 -999 -999 -999
2011-09-19 08:33:40 51°18.511 2°51.316 -999 -999 -999 -999
2011-09-19 08:33:50 51°18.519 2°51.355 -999 -999 -999 -999
2011-09-19 08:34:00 51°18.528 2°51.405 -999 -999 -999 -999
2011-09-19 08:34:10 51°18.536 2°51.443 -999 -999 -999 -999
2011-09-19 08:34:20 51°18.547 2°51.497 -999 -999 -999 -999
2011-09-19 08:34:30 51°18.556 2°51.541 -999 -999 -999 -999
2011-09-19 08:34:40 51°18.568 2°51.595 -999 -999 -999 -999
2011-09-19 08:34:50 51°18.576 2°51.64 -999 -999 -999 -999
2011-09-19 08:35:00 51°18.588 2°51.695 -999 -999 -999 -999
2011-09-19 08:35:10 51°18.597 2°51.741 -999 -999 -999 -999
2011-09-19 08:35:20 51°18.608 2°51.796 -999 -999 -999 -999
2011-09-19 08:35:30 51°18.617 2°51.841 -999 -999 -999 -999
2011-09-19 08:35:40 51°18.628 2°51.897 -999 -999 -999 -999
2011-09-19 08:35:50 51°18.636 2°51.944 -999 -999 -999 -999
2011-09-19 08:36:00 51°18.646 2°52 -999 -999 -999 -999
2011-09-19 08:36:10 51°18.655 2°52.046 -999 -999 -999 -999
2011-09-19 08:36:20 51°18.666 2°52.101 -999 -999 -999 -999
2011-09-19 08:36:30 51°18.675 2°52.146 -999 -999 -999 -999
2011-09-19 08:36:40 51°18.687 2°52.2 -999 -999 -999 -999
2011-09-19 08:36:50 51°18.698 2°52.25 -999 -999 -999 -999
2011-09-19 08:37:00 51°18.709 2°52.299 -999 -999 -999 -999
2011-09-19 08:37:10 51°18.719 2°52.344 -999 -999 -999 -999
2011-09-19 08:37:20 51°18.731 2°52.398 -999 -999 -999 -999
2011-09-19 08:37:30 51°18.741 2°52.442 -999 -999 -999 -999
2011-09-19 08:37:40 51°18.753 2°52.496 -999 -999 -999 -999
2011-09-19 08:37:50 51°18.764 2°52.541 -999 -999 -999 -999
2011-09-19 08:38:00 51°18.778 2°52.594 -999 -999 -999 -999
2011-09-19 08:38:10 51°18.788 2°52.638 -999 -999 -999 -999
2011-09-19 08:38:20 51°18.801 2°52.692 -999 -999 -999 -999
2011-09-19 08:38:30 51°18.811 2°52.736 -999 -999 -999 -999
2011-09-19 08:38:40 51°18.823 2°52.791 -999 -999 -999 -999
2011-09-19 08:38:50 51°18.832 2°52.835 -999 -999 -999 -999
2011-09-19 08:39:00 51°18.842 2°52.89 -999 -999 -999 -999
2011-09-19 08:39:10 51°18.853 2°52.945 -999 -999 -999 -999
2011-09-19 08:39:20 51°18.862 2°52.995 -999 -999 -999 -999
2011-09-19 08:39:30 51°18.872 2°53.04 -999 -999 -999 -999
2011-09-19 08:39:40 51°18.884 2°53.093 -999 -999 -999 -999
2011-09-19 08:39:50 51°18.893 2°53.138 -999 -999 -999 -999
2011-09-19 08:40:00 51°18.904 2°53.192 -999 -999 -999 -999
2011-09-19 08:40:10 51°18.913 2°53.241 -999 -999 -999 -999
2011-09-19 08:40:20 51°18.924 2°53.29 -999 -999 -999 -999
2011-09-19 08:40:30 51°18.933 2°53.335 -999 -999 -999 -999
2011-09-19 08:40:40 51°18.944 2°53.39 -999 -999 -999 -999
2011-09-19 08:40:50 51°18.954 2°53.434 -999 -999 -999 -999
2011-09-19 08:41:00 51°18.965 2°53.489 -999 -999 -999 -999
2011-09-19 08:41:10 51°18.975 2°53.538 -999 -999 -999 -999
2011-09-19 08:41:20 51°18.985 2°53.588 -999 -999 -999 -999
2011-09-19 08:41:30 51°18.997 2°53.637 -999 -999 -999 -999
2011-09-19 08:41:40 51°19.007 2°53.686 -999 -999 -999 -999
2011-09-19 08:41:50 51°19.017 2°53.731 -999 -999 -999 -999
2011-09-19 08:42:00 51°19.028 2°53.785 -999 -999 -999 -999
2011-09-19 08:42:10 51°19.037 2°53.824 -999 -999 -999 -999
2011-09-19 08:42:20 51°19.049 2°53.877 -999 -999 -999 -999
2011-09-19 08:42:30 51°19.059 2°53.92 -999 -999 -999 -999
2011-09-19 08:42:40 51°19.071 2°53.973 -999 -999 -999 -999
2011-09-19 08:42:50 51°19.081 2°54.017 -999 -999 -999 -999
2011-09-19 08:43:00 51°19.092 2°54.072 -999 -999 -999 -999
2011-09-19 08:43:10 51°19.1 2°54.116 -999 -999 -999 -999
2011-09-19 08:43:20 51°19.112 2°54.171 -999 -999 -999 -999
2011-09-19 08:43:30 51°19.121 2°54.215 -999 -999 -999 -999
2011-09-19 08:43:40 51°19.133 2°54.269 -999 -999 -999 -999
2011-09-19 08:43:50 51°19.143 2°54.313 -999 -999 -999 -999
2011-09-19 08:44:00 51°19.154 2°54.366 -999 -999 -999 -999
2011-09-19 08:44:10 51°19.163 2°54.411 -999 -999 -999 -999
2011-09-19 08:44:20 51°19.173 2°54.466 -999 -999 -999 -999
2011-09-19 08:44:30 51°19.183 2°54.51 -999 -999 -999 -999
2011-09-19 08:44:40 51°19.194 2°54.564 -999 -999 -999 -999
2011-09-19 08:44:50 51°19.204 2°54.608 -999 -999 -999 -999
2011-09-19 08:45:00 51°19.215 2°54.662 -999 -999 -999 -999
2011-09-19 08:45:10 51°19.224 2°54.706 -999 -999 -999 -999
2011-09-19 08:45:20 51°19.234 2°54.761 -999 -999 -999 -999
2011-09-19 08:45:30 51°19.245 2°54.81 -999 -999 -999 -999
2011-09-19 08:45:40 51°19.256 2°54.86 -999 -999 -999 -999
2011-09-19 08:45:50 51°19.265 2°54.903 -999 -999 -999 -999
2011-09-19 08:46:00 51°19.275 2°54.958 -999 -999 -999 -999
2011-09-19 08:46:10 51°19.284 2°55.007 -999 -999 -999 -999
2011-09-19 08:46:20 51°19.296 2°55.061 -999 -999 -999 -999
2011-09-19 08:46:30 51°19.305 2°55.105 -999 -999 -999 -999
2011-09-19 08:46:40 51°19.317 2°55.16 -999 -999 -999 -999
2011-09-19 08:46:50 51°19.326 2°55.209 -999 -999 -999 -999
2011-09-19 08:47:00 51°19.336 2°55.259 -999 -999 -999 -999
2011-09-19 08:47:10 51°19.344 2°55.303 -999 -999 -999 -999
2011-09-19 08:47:20 51°19.356 2°55.357 -999 -999 -999 -999
2011-09-19 08:47:30 51°19.366 2°55.401 -999 -999 -999 -999
2011-09-19 08:47:40 51°19.377 2°55.454 -999 -999 -999 -999
2011-09-19 08:47:50 51°19.388 2°55.502 -999 -999 -999 -999
2011-09-19 08:48:00 51°19.398 2°55.551 -999 -999 -999 -999
2011-09-19 08:48:10 51°19.406 2°55.596 -999 -999 -999 -999
2011-09-19 08:48:20 51°19.418 2°55.649 -999 -999 -999 -999
2011-09-19 08:48:30 51°19.427 2°55.693 -999 -999 -999 -999
2011-09-19 08:48:40 51°19.439 2°55.746 -999 -999 -999 -999
2011-09-19 08:48:50 51°19.45 2°55.796 -999 -999 -999 -999
2011-09-19 08:49:00 51°19.462 2°55.844 -999 -999 -999 -999
2011-09-19 08:49:10 51°19.471 2°55.883 -999 -999 -999 -999
2011-09-19 08:49:20 51°19.482 2°55.936 -999 -999 -999 -999
2011-09-19 08:49:30 51°19.491 2°55.98 -999 -999 -999 -999
2011-09-19 08:49:40 51°19.502 2°56.034 -999 -999 -999 -999
2011-09-19 08:49:50 51°19.51 2°56.077 -999 -999 -999 -999
2011-09-19 08:50:00 51°19.52 2°56.132 -999 -999 -999 -999
2011-09-19 08:50:10 51°19.527 2°56.177 -999 -999 -999 -999
2011-09-19 08:50:20 51°19.539 2°56.23 -999 -999 -999 -999
2011-09-19 08:50:30 51°19.548 2°56.275 -999 -999 -999 -999
2011-09-19 08:50:40 51°19.56 2°56.328 -999 -999 -999 -999
2011-09-19 08:50:50 51°19.568 2°56.374 -999 -999 -999 -999
2011-09-19 08:51:00 51°19.577 2°56.429 -999 -999 -999 -999
2011-09-19 08:51:10 51°19.587 2°56.478 -999 -999 -999 -999
2011-09-19 08:51:20 51°19.597 2°56.528 -999 -999 -999 -999
2011-09-19 08:51:30 51°19.608 2°56.571 -999 -999 -999 -999
2011-09-19 08:51:40 51°19.62 2°56.625 -999 -999 -999 -999
2011-09-19 08:51:50 51°19.629 2°56.668 -999 -999 -999 -999
2011-09-19 08:52:00 51°19.64 2°56.723 -999 -999 -999 -999
2011-09-19 08:52:10 51°19.65 2°56.772 -999 -999 -999 -999
2011-09-19 08:52:20 51°19.661 2°56.82 -999 -999 -999 -999
2011-09-19 08:52:30 51°19.67 2°56.864 -999 -999 -999 -999
2011-09-19 08:52:40 51°19.681 2°56.919 -999 -999 -999 -999
2011-09-19 08:52:50 51°19.689 2°56.963 -999 -999 -999 -999
2011-09-19 08:53:00 51°19.7 2°57.018 -999 -999 -999 -999
2011-09-19 08:53:10 51°19.71 2°57.067 -999 -999 -999 -999
2011-09-19 08:53:20 51°19.72 2°57.116 -999 -999 -999 -999
2011-09-19 08:53:30 51°19.729 2°57.16 -999 -999 -999 -999
2011-09-19 08:53:40 51°19.742 2°57.212 -999 -999 -999 -999
2011-09-19 08:53:50 51°19.752 2°57.255 -999 -999 -999 -999
2011-09-19 08:54:00 51°19.765 2°57.307 -999 -999 -999 -999
2011-09-19 08:54:10 51°19.776 2°57.355 -999 -999 -999 -999
2011-09-19 08:54:20 51°19.788 2°57.408 -999 -999 -999 -999
2011-09-19 08:54:30 51°19.798 2°57.451 -999 -999 -999 -999
2011-09-19 08:54:40 51°19.81 2°57.505 -999 -999 -999 -999
2011-09-19 08:54:50 51°19.819 2°57.549 -999 -999 -999 -999
2011-09-19 08:55:00 51°19.828 2°57.603 -999 -999 -999 -999
2011-09-19 08:55:10 51°19.833 2°57.648 -999 -999 -999 -999
2011-09-19 08:55:20 51°19.842 2°57.703 -999 -999 -999 -999
2011-09-19 08:55:30 51°19.848 2°57.748 -999 -999 -999 -999
2011-09-19 08:55:40 51°19.855 2°57.802 -999 -999 -999 -999
2011-09-19 08:55:50 51°19.863 2°57.846 -999 -999 -999 -999
2011-09-19 08:56:00 51°19.871 2°57.901 -999 -999 -999 -999
2011-09-19 08:56:10 51°19.878 2°57.946 -999 -999 -999 -999
2011-09-19 08:56:20 51°19.887 2°57.999 -999 -999 -999 -999
2011-09-19 08:56:30 51°19.895 2°58.044 -999 -999 -999 -999
2011-09-19 08:56:40 51°19.903 2°58.098 -999 -999 -999 -999
2011-09-19 08:56:50 51°19.913 2°58.146 -999 -999 -999 -999
2011-09-19 08:57:00 51°19.921 2°58.194 -999 -999 -999 -999
2011-09-19 08:57:10 51°19.928 2°58.233 -999 -999 -999 -999
2011-09-19 08:57:20 51°19.937 2°58.286 -999 -999 -999 -999
2011-09-19 08:57:30 51°19.944 2°58.33 -999 -999 -999 -999
2011-09-19 08:57:40 51°19.952 2°58.385 -999 -999 -999 -999
2011-09-19 08:57:50 51°19.958 2°58.429 -999 -999 -999 -999
2011-09-19 08:58:00 51°19.967 2°58.483 -999 -999 -999 -999
2011-09-19 08:58:10 51°19.975 2°58.527 -999 -999 -999 -999
2011-09-19 08:58:20 51°19.984 2°58.58 -999 -999 -999 -999
2011-09-19 08:58:30 51°19.993 2°58.623 -999 -999 -999 -999
2011-09-19 08:58:40 51°20.003 2°58.677 -999 -999 -999 -999
2011-09-19 08:58:50 51°20.011 2°58.72 -999 -999 -999 -999
2011-09-19 08:59:00 51°20.021 2°58.772 -999 -999 -999 -999
2011-09-19 08:59:10 51°20.029 2°58.816 -999 -999 -999 -999
2011-09-19 08:59:20 51°20.037 2°58.869 -999 -999 -999 -999
2011-09-19 08:59:30 51°20.045 2°58.913 -999 -999 -999 -999
2011-09-19 08:59:40 51°20.053 2°58.967 -999 -999 -999 -999
2011-09-19 08:59:50 51°20.059 2°59.012 -999 -999 -999 -999
2011-09-19 09:00:00 51°20.067 2°59.065 -999 -999 -999 -999
2011-09-19 09:00:10 51°20.074 2°59.11 -999 -999 -999 -999
2011-09-19 09:00:20 51°20.082 2°59.164 -999 -999 -999 -999
2011-09-19 09:00:30 51°20.091 2°59.208 -999 -999 -999 -999
2011-09-19 09:00:40 51°20.099 2°59.262 -999 -999 -999 -999
2011-09-19 09:00:50 51°20.107 2°59.306 -999 -999 -999 -999
2011-09-19 09:01:00 51°20.115 2°59.361 -999 -999 -999 -999
2011-09-19 09:01:10 51°20.123 2°59.409 -999 -999 -999 -999
2011-09-19 09:01:20 51°20.13 2°59.458 -999 -999 -999 -999
2011-09-19 09:01:30 51°20.137 2°59.502 -999 -999 -999 -999
2011-09-19 09:01:40 51°20.147 2°59.554 -999 -999 -999 -999
2011-09-19 09:01:50 51°20.152 2°59.598 -999 -999 -999 -999
2011-09-19 09:02:00 51°20.161 2°59.652 -999 -999 -999 -999
2011-09-19 09:02:10 51°20.17 2°59.699 -999 -999 -999 -999
2011-09-19 09:02:20 51°20.179 2°59.752 -999 -999 -999 -999
2011-09-19 09:02:30 51°20.188 2°59.8 -999 -999 -999 -999
2011-09-19 09:02:40 51°20.196 2°59.848 -999 -999 -999 -999
2011-09-19 09:02:50 51°20.202 2°59.892 -999 -999 -999 -999
2011-09-19 09:03:00 51°20.21 2°59.946 -999 -999 -999 -999
2011-09-19 09:03:10 51°20.217 2°59.99 -999 -999 -999 -999
2011-09-19 09:03:20 51°20.226 3°0.043 -999 -999 -999 -999
2011-09-19 09:03:30 51°20.236 3°0.09 -999 -999 -999 -999
2011-09-19 09:03:40 51°20.244 3°0.139 -999 -999 -999 -999
2011-09-19 09:03:50 51°20.25 3°0.182 -999 -999 -999 -999
2011-09-19 09:04:00 51°20.261 3°0.234 -999 -999 -999 -999
2011-09-19 09:04:10 51°20.268 3°0.271 -999 -999 -999 -999
2011-09-19 09:04:20 51°20.277 3°0.324 -999 -999 -999 -999
2011-09-19 09:04:30 51°20.283 3°0.366 -999 -999 -999 -999
2011-09-19 09:04:40 51°20.291 3°0.419 -999 -999 -999 -999
2011-09-19 09:04:50 51°20.297 3°0.462 -999 -999 -999 -999
2011-09-19 09:05:00 51°20.306 3°0.515 -999 -999 -999 -999
2011-09-19 09:05:10 51°20.313 3°0.558 -999 -999 -999 -999
2011-09-19 09:05:20 51°20.323 3°0.611 -999 -999 -999 -999
2011-09-19 09:05:30 51°20.331 3°0.654 -999 -999 -999 -999
2011-09-19 09:05:40 51°20.341 3°0.706 -999 -999 -999 -999
2011-09-19 09:05:50 51°20.35 3°0.749 -999 -999 -999 -999
2011-09-19 09:06:00 51°20.36 3°0.802 -999 -999 -999 -999
2011-09-19 09:06:10 51°20.368 3°0.845 -999 -999 -999 -999
2011-09-19 09:06:20 51°20.378 3°0.897 -999 -999 -999 -999
2011-09-19 09:06:30 51°20.385 3°0.94 -999 -999 -999 -999
2011-09-19 09:06:40 51°20.393 3°0.993 -999 -999 -999 -999
2011-09-19 09:06:50 51°20.4 3°1.037 -999 -999 -999 -999
2011-09-19 09:07:00 51°20.409 3°1.089 -999 -999 -999 -999
2011-09-19 09:07:10 51°20.416 3°1.132 -999 -999 -999 -999
2011-09-19 09:07:20 51°20.426 3°1.183 -999 -999 -999 -999
2011-09-19 09:07:30 51°20.432 3°1.227 -999 -999 -999 -999
2011-09-19 09:07:40 51°20.441 3°1.278 -999 -999 -999 -999
2011-09-19 09:07:50 51°20.449 3°1.326 -999 -999 -999 -999
2011-09-19 09:08:00 51°20.457 3°1.373 -999 -999 -999 -999
2011-09-19 09:08:10 51°20.464 3°1.415 -999 -999 -999 -999
2011-09-19 09:08:20 51°20.471 3°1.467 -999 -999 -999 -999
2011-09-19 09:08:30 51°20.478 3°1.51 -999 -999 -999 -999
2011-09-19 09:08:40 51°20.485 3°1.563 -999 -999 -999 -999
2011-09-19 09:08:50 51°20.493 3°1.61 -999 -999 -999 -999
2011-09-19 09:09:00 51°20.502 3°1.656 -999 -999 -999 -999
2011-09-19 09:09:10 51°20.511 3°1.708 -999 -999 -999 -999
2011-09-19 09:09:20 51°20.519 3°1.756 -999 -999 -999 -999
2011-09-19 09:09:30 51°20.525 3°1.799 -999 -999 -999 -999
2011-09-19 09:09:40 51°20.533 3°1.851 -999 -999 -999 -999
2011-09-19 09:09:50 51°20.54 3°1.894 -999 -999 -999 -999
2011-09-19 09:10:00 51°20.548 3°1.947 -999 -999 -999 -999
2011-09-19 09:10:10 51°20.555 3°1.995 -999 -999 -999 -999
2011-09-19 09:10:20 51°20.563 3°2.04 -999 -999 -999 -999
2011-09-19 09:10:30 51°20.57 3°2.078 -999 -999 -999 -999
2011-09-19 09:10:40 51°20.579 3°2.121 -999 -999 -999 -999
2011-09-19 09:10:50 51°20.584 3°2.154 -999 -999 -999 -999
2011-09-19 09:11:00 51°20.591 3°2.192 -999 -999 -999 -999
2011-09-19 09:11:10 51°20.596 3°2.223 -999 -999 -999 -999
2011-09-19 09:11:20 51°20.6 3°2.251 -999 -999 -999 -999
2011-09-19 09:11:30 51°20.604 3°2.276 -999 -999 -999 -999
2011-09-19 09:11:40 51°20.607 3°2.299 -999 -999 -999 -999
2011-09-19 09:11:50 51°20.611 3°2.318 -999 -999 -999 -999
2011-09-19 09:12:00 51°20.616 3°2.339 -999 -999 -999 -999
2011-09-19 09:12:10 51°20.619 3°2.35 -999 -999 -999 -999
2011-09-19 09:12:20 51°20.625 3°2.363 -999 -999 -999 -999
2011-09-19 09:12:30 51°20.631 3°2.371 -999 -999 -999 -999
2011-09-19 09:12:40 51°20.638 3°2.377 -999 -999 -999 -999
2011-09-19 09:12:50 51°20.645 3°2.38 -999 -999 -999 -999
2011-09-19 09:13:00 51°20.653 3°2.382 -999 -999 -999 -999
2011-09-19 09:13:10 51°20.659 3°2.385 -999 -999 -999 -999
2011-09-19 09:13:20 51°20.666 3°2.39 -999 -999 -999 -999
2011-09-19 09:13:30 51°20.671 3°2.395 -999 -999 -999 -999
2011-09-19 09:13:40 51°20.676 3°2.403 -999 -999 -999 -999
2011-09-19 09:13:50 51°20.678 3°2.411 -999 -999 -999 -999
2011-09-19 09:14:00 51°20.68 3°2.422 -999 -999 -999 -999
2011-09-19 09:14:10 51°20.681 3°2.432 -999 -999 -999 -999
2011-09-19 09:14:20 51°20.682 3°2.444 -999 -999 -999 -999
2011-09-19 09:14:30 51°20.683 3°2.456 -999 -999 -999 -999
2011-09-19 09:14:40 51°20.685 3°2.468 -999 -999 -999 -999
2011-09-19 09:14:50 51°20.687 3°2.479 -999 -999 -999 -999
2011-09-19 09:15:00 51°20.69 3°2.492 -999 -999 -999 -999
2011-09-19 09:15:10 51°20.693 3°2.501 -999 -999 -999 -999
2011-09-19 09:15:20 51°20.698 3°2.513 -999 -999 -999 -999
2011-09-19 09:15:30 51°20.703 3°2.522 -999 -999 -999 -999
2011-09-19 09:15:40 51°20.708 3°2.532 -999 -999 -999 -999
2011-09-19 09:15:50 51°20.713 3°2.539 -999 -999 -999 -999
2011-09-19 09:16:00 51°20.718 3°2.547 -999 -999 -999 -999
2011-09-19 09:16:10 51°20.722 3°2.551 -999 -999 -999 -999
2011-09-19 09:16:20 51°20.726 3°2.554 -999 -999 -999 -999
2011-09-19 09:16:30 51°20.729 3°2.554 -999 -999 -999 -999
2011-09-19 09:16:40 51°20.731 3°2.552 -999 -999 -999 -999
2011-09-19 09:16:50 51°20.732 3°2.55 -999 -999 -999 -999
2011-09-19 09:17:00 51°20.732 3°2.547 -999 -999 -999 -999
2011-09-19 09:17:10 51°20.732 3°2.544 -999 -999 -999 -999
2011-09-19 09:17:20 51°20.732 3°2.541 -999 -999 -999 -999
2011-09-19 09:17:30 51°20.731 3°2.539 -999 -999 -999 -999
2011-09-19 09:17:40 51°20.731 3°2.535 -999 -999 -999 -999
2011-09-19 09:17:50 51°20.73 3°2.533 -999 -999 -999 -999
2011-09-19 09:18:00 51°20.729 3°2.53 -999 -999 -999 -999
2011-09-19 09:18:10 51°20.728 3°2.527 -999 -999 -999 -999
2011-09-19 09:18:20 51°20.727 3°2.524 -999 -999 -999 -999
2011-09-19 09:18:30 51°20.726 3°2.522 -999 -999 -999 -999
2011-09-19 09:18:40 51°20.724 3°2.52 -999 -999 -999 -999
2011-09-19 09:18:50 51°20.723 3°2.517 -999 -999 -999 -999
2011-09-19 09:19:00 51°20.721 3°2.514 -999 -999 -999 -999
2011-09-19 09:19:10 51°20.719 3°2.512 -999 -999 -999 -999
2011-09-19 09:19:20 51°20.717 3°2.509 -999 -999 -999 -999
2011-09-19 09:19:30 51°20.716 3°2.507 -999 -999 -999 -999
2011-09-19 09:19:40 51°20.713 3°2.504 -999 -999 -999 -999
2011-09-19 09:19:50 51°20.711 3°2.502 -999 -999 -999 -999
2011-09-19 09:20:00 51°20.709 3°2.499 -999 -999 -999 -999
2011-09-19 09:20:10 51°20.707 3°2.497 -999 -999 -999 -999
2011-09-19 09:20:20 51°20.705 3°2.493 -999 -999 -999 -999
2011-09-19 09:20:30 51°20.703 3°2.49 -999 -999 -999 -999
2011-09-19 09:20:40 51°20.701 3°2.487 -999 -999 -999 -999
2011-09-19 09:20:50 51°20.699 3°2.484 -999 -999 -999 -999
2011-09-19 09:21:00 51°20.696 3°2.481 -999 -999 -999 -999
2011-09-19 09:21:10 51°20.694 3°2.478 -999 -999 -999 -999
2011-09-19 09:21:20 51°20.692 3°2.475 -999 -999 -999 -999
2011-09-19 09:21:30 51°20.69 3°2.472 -999 -999 -999 -999
2011-09-19 09:21:40 51°20.688 3°2.469 -999 -999 -999 -999
2011-09-19 09:21:50 51°20.686 3°2.466 -999 -999 -999 -999
2011-09-19 09:22:00 51°20.683 3°2.463 -999 -999 -999 -999
2011-09-19 09:22:10 51°20.681 3°2.46 -999 -999 -999 -999
2011-09-19 09:22:20 51°20.679 3°2.457 -999 -999 -999 -999
2011-09-19 09:22:30 51°20.677 3°2.454 -999 -999 -999 -999
2011-09-19 09:22:40 51°20.674 3°2.451 -999 -999 -999 -999
2011-09-19 09:22:50 51°20.672 3°2.448 -999 -999 -999 -999
2011-09-19 09:23:00 51°20.67 3°2.444 -999 -999 -999 -999
2011-09-19 09:23:10 51°20.668 3°2.441 -999 -999 -999 -999
2011-09-19 09:23:20 51°20.665 3°2.437 -999 -999 -999 -999
2011-09-19 09:23:30 51°20.663 3°2.434 -999 -999 -999 -999
2011-09-19 09:23:40 51°20.661 3°2.431 -999 -999 -999 -999
2011-09-19 09:23:50 51°20.659 3°2.428 -999 -999 -999 -999
2011-09-19 09:24:00 51°20.656 3°2.425 -999 -999 -999 -999
2011-09-19 09:24:10 51°20.655 3°2.422 -999 -999 -999 -999
2011-09-19 09:24:20 51°20.652 3°2.418 -999 -999 -999 -999
2011-09-19 09:24:30 51°20.65 3°2.415 -999 -999 -999 -999
2011-09-19 09:24:40 51°20.648 3°2.412 -999 -999 -999 -999
2011-09-19 09:24:50 51°20.646 3°2.409 -999 -999 -999 -999
2011-09-19 09:25:00 51°20.644 3°2.405 -999 -999 -999 -999
2011-09-19 09:25:10 51°20.642 3°2.402 -999 -999 -999 -999
2011-09-19 09:25:20 51°20.64 3°2.399 -999 -999 -999 -999
2011-09-19 09:25:30 51°20.637 3°2.396 -999 -999 -999 -999
2011-09-19 09:25:40 51°20.635 3°2.393 -999 -999 -999 -999
2011-09-19 09:25:50 51°20.633 3°2.389 -999 -999 -999 -999
2011-09-19 09:26:00 51°20.631 3°2.386 -999 -999 -999 -999
2011-09-19 09:26:10 51°20.629 3°2.383 -999 -999 -999 -999
2011-09-19 09:26:20 51°20.627 3°2.379 -999 -999 -999 -999
2011-09-19 09:26:30 51°20.625 3°2.376 -999 -999 -999 -999
2011-09-19 09:26:40 51°20.622 3°2.373 -999 -999 -999 -999
2011-09-19 09:26:50 51°20.62 3°2.37 -999 -999 -999 -999
2011-09-19 09:27:00 51°20.618 3°2.367 -999 -999 -999 -999
2011-09-19 09:27:10 51°20.616 3°2.364 -999 -999 -999 -999
2011-09-19 09:27:20 51°20.613 3°2.361 -999 -999 -999 -999
2011-09-19 09:27:30 51°20.611 3°2.358 -999 -999 -999 -999
2011-09-19 09:27:40 51°20.608 3°2.354 -999 -999 -999 -999
2011-09-19 09:27:50 51°20.606 3°2.352 -999 -999 -999 -999
2011-09-19 09:28:00 51°20.604 3°2.349 -999 -999 -999 -999
2011-09-19 09:28:10 51°20.602 3°2.346 -999 -999 -999 -999
2011-09-19 09:28:20 51°20.599 3°2.343 -999 -999 -999 -999
2011-09-19 09:28:30 51°20.597 3°2.341 -999 -999 -999 -999
2011-09-19 09:28:40 51°20.594 3°2.337 -999 -999 -999 -999
2011-09-19 09:28:50 51°20.593 3°2.336 -999 -999 -999 -999
2011-09-19 09:29:00 51°20.594 3°2.336 -999 -999 -999 -999
2011-09-19 09:29:10 51°20.597 3°2.339 -999 -999 -999 -999
2011-09-19 09:29:20 51°20.602 3°2.345 -999 -999 -999 -999
2011-09-19 09:29:30 51°20.608 3°2.35 -999 -999 -999 -999
2011-09-19 09:29:40 51°20.617 3°2.358 -999 -999 -999 -999
2011-09-19 09:29:50 51°20.626 3°2.365 -999 -999 -999 -999
2011-09-19 09:30:00 51°20.638 3°2.373 -999 -999 -999 -999
2011-09-19 09:30:10 51°20.648 3°2.38 -999 -999 -999 -999
2011-09-19 09:30:20 51°20.661 3°2.39 -999 -999 -999 -999
2011-09-19 09:30:30 51°20.672 3°2.399 -999 -999 -999 -999
2011-09-19 09:30:40 51°20.685 3°2.411 -999 -999 -999 -999
2011-09-19 09:30:50 51°20.695 3°2.424 -999 -999 -999 -999
2011-09-19 09:31:00 51°20.707 3°2.44 -999 -999 -999 -999
2011-09-19 09:31:10 51°20.717 3°2.456 -999 -999 -999 -999
2011-09-19 09:31:20 51°20.726 3°2.474 -999 -999 -999 -999
2011-09-19 09:31:30 51°20.733 3°2.493 -999 -999 -999 -999
2011-09-19 09:31:40 51°20.743 3°2.52 -999 -999 -999 -999
2011-09-19 09:31:50 51°20.749 3°2.546 -999 -999 -999 -999
2011-09-19 09:32:00 51°20.757 3°2.58 -999 -999 -999 -999
2011-09-19 09:32:10 51°20.764 3°2.61 -999 -999 -999 -999
2011-09-19 09:32:20 51°20.773 3°2.651 -999 -999 -999 -999
2011-09-19 09:32:30 51°20.782 3°2.69 -999 -999 -999 -999
2011-09-19 09:32:40 51°20.791 3°2.731 -999 -999 -999 -999
2011-09-19 09:32:50 51°20.799 3°2.769 -999 -999 -999 -999
2011-09-19 09:33:00 51°20.808 3°2.816 -999 -999 -999 -999
2011-09-19 09:33:10 51°20.817 3°2.863 -999 -999 -999 -999
2011-09-19 09:33:20 51°20.826 3°2.906 -999 -999 -999 -999
2011-09-19 09:33:30 51°20.833 3°2.946 -999 -999 -999 -999
2011-09-19 09:33:40 51°20.843 3°2.994 -999 -999 -999 -999
2011-09-19 09:33:50 51°20.851 3°3.034 -999 -999 -999 -999
2011-09-19 09:34:00 51°20.86 3°3.084 -999 -999 -999 -999
2011-09-19 09:34:10 51°20.867 3°3.124 -999 -999 -999 -999
2011-09-19 09:34:20 51°20.877 3°3.173 -999 -999 -999 -999
2011-09-19 09:34:30 51°20.885 3°3.213 -999 -999 -999 -999
2011-09-19 09:34:40 51°20.894 3°3.263 -999 -999 -999 -999
2011-09-19 09:34:50 51°20.902 3°3.307 -999 -999 -999 -999
2011-09-19 09:35:00 51°20.914 3°3.351 -999 -999 -999 -999
2011-09-19 09:35:10 51°20.924 3°3.395 -999 -999 -999 -999
2011-09-19 09:35:20 51°20.932 3°3.439 -999 -999 -999 -999
2011-09-19 09:35:30 51°20.94 3°3.479 -999 -999 -999 -999
2011-09-19 09:35:40 51°20.951 3°3.528 -999 -999 -999 -999
2011-09-19 09:35:50 51°20.961 3°3.572 -999 -999 -999 -999
2011-09-19 09:36:00 51°20.972 3°3.615 -999 -999 -999 -999
2011-09-19 09:36:10 51°20.979 3°3.65 -999 -999 -999 -999
2011-09-19 09:36:20 51°20.99 3°3.698 -999 -999 -999 -999
2011-09-19 09:36:30 51°20.999 3°3.738 -999 -999 -999 -999
2011-09-19 09:36:40 51°21.01 3°3.786 -999 -999 -999 -999
2011-09-19 09:36:50 51°21.018 3°3.826 -999 -999 -999 -999
2011-09-19 09:37:00 51°21.028 3°3.874 -999 -999 -999 -999
2011-09-19 09:37:10 51°21.036 3°3.914 -999 -999 -999 -999
2011-09-19 09:37:20 51°21.047 3°3.963 -999 -999 -999 -999
2011-09-19 09:37:30 51°21.055 3°4.002 -999 -999 -999 -999
2011-09-19 09:37:40 51°21.066 3°4.051 -999 -999 -999 -999
2011-09-19 09:37:50 51°21.074 3°4.091 -999 -999 -999 -999
2011-09-19 09:38:00 51°21.085 3°4.139 -999 -999 -999 -999
2011-09-19 09:38:10 51°21.093 3°4.178 -999 -999 -999 -999
2011-09-19 09:38:20 51°21.103 3°4.227 -999 -999 -999 -999
2011-09-19 09:38:30 51°21.111 3°4.268 -999 -999 -999 -999
2011-09-19 09:38:40 51°21.12 3°4.317 -999 -999 -999 -999
2011-09-19 09:38:50 51°21.13 3°4.356 -999 -999 -999 -999
2011-09-19 09:39:00 51°21.143 3°4.402 -999 -999 -999 -999
2011-09-19 09:39:10 51°21.156 3°4.443 -999 -999 -999 -999
2011-09-19 09:39:20 51°21.169 3°4.485 -999 -999 -999 -999
2011-09-19 09:39:30 51°21.181 3°4.522 -999 -999 -999 -999
2011-09-19 09:39:40 51°21.196 3°4.567 -999 -999 -999 -999
2011-09-19 09:39:50 51°21.208 3°4.605 -999 -999 -999 -999
2011-09-19 09:40:00 51°21.224 3°4.651 -999 -999 -999 -999
2011-09-19 09:40:10 51°21.237 3°4.688 -999 -999 -999 -999
2011-09-19 09:40:20 51°21.253 3°4.733 -999 -999 -999 -999
2011-09-19 09:40:30 51°21.267 3°4.77 -999 -999 -999 -999
2011-09-19 09:40:40 51°21.282 3°4.816 -999 -999 -999 -999
2011-09-19 09:40:50 51°21.295 3°4.854 -999 -999 -999 -999
2011-09-19 09:41:00 51°21.311 3°4.9 -999 -999 -999 -999
2011-09-19 09:41:10 51°21.324 3°4.942 -999 -999 -999 -999
2011-09-19 09:41:20 51°21.339 3°4.989 -999 -999 -999 -999
2011-09-19 09:41:30 51°21.352 3°5.032 -999 -999 -999 -999
2011-09-19 09:41:40 51°21.365 3°5.074 -999 -999 -999 -999
2011-09-19 09:41:50 51°21.379 3°5.117 -999 -999 -999 -999
2011-09-19 09:42:00 51°21.392 3°5.159 -999 -999 -999 -999
2011-09-19 09:42:10 51°21.404 3°5.197 -999 -999 -999 -999
2011-09-19 09:42:20 51°21.42 3°5.243 -999 -999 -999 -999
2011-09-19 09:42:30 51°21.432 3°5.28 -999 -999 -999 -999
2011-09-19 09:42:40 51°21.448 3°5.327 -999 -999 -999 -999
2011-09-19 09:42:50 51°21.461 3°5.369 -999 -999 -999 -999
2011-09-19 09:43:00 51°21.475 3°5.41 -999 -999 -999 -999
2011-09-19 09:43:10 51°21.486 3°5.449 -999 -999 -999 -999
2011-09-19 09:43:20 51°21.501 3°5.495 -999 -999 -999 -999
2011-09-19 09:43:30 51°21.512 3°5.529 -999 -999 -999 -999
2011-09-19 09:43:40 51°21.527 3°5.576 -999 -999 -999 -999
2011-09-19 09:43:50 51°21.539 3°5.613 -999 -999 -999 -999
2011-09-19 09:44:00 51°21.555 3°5.658 -999 -999 -999 -999
2011-09-19 09:44:10 51°21.567 3°5.697 -999 -999 -999 -999
2011-09-19 09:44:20 51°21.583 3°5.742 -999 -999 -999 -999
2011-09-19 09:44:30 51°21.596 3°5.779 -999 -999 -999 -999
2011-09-19 09:44:40 51°21.613 3°5.824 -999 -999 -999 -999
2011-09-19 09:44:50 51°21.627 3°5.861 -999 -999 -999 -999
2011-09-19 09:45:00 51°21.644 3°5.907 -999 -999 -999 -999
2011-09-19 09:45:10 51°21.657 3°5.945 -999 -999 -999 -999
2011-09-19 09:45:20 51°21.674 3°5.99 -999 -999 -999 -999
2011-09-19 09:45:30 51°21.685 3°6.029 -999 -999 -999 -999
2011-09-19 09:45:40 51°21.702 3°6.075 -999 -999 -999 -999
2011-09-19 09:45:50 51°21.715 3°6.114 -999 -999 -999 -999
2011-09-19 09:46:00 51°21.729 3°6.162 -999 -999 -999 -999
2011-09-19 09:46:10 51°21.741 3°6.201 -999 -999 -999 -999
2011-09-19 09:46:20 51°21.755 3°6.25 -999 -999 -999 -999
2011-09-19 09:46:30 51°21.767 3°6.288 -999 -999 -999 -999
2011-09-19 09:46:40 51°21.781 3°6.337 -999 -999 -999 -999
2011-09-19 09:46:50 51°21.793 3°6.375 -999 -999 -999 -999
2011-09-19 09:47:00 51°21.808 3°6.423 -999 -999 -999 -999
2011-09-19 09:47:10 51°21.821 3°6.461 -999 -999 -999 -999
2011-09-19 09:47:20 51°21.837 3°6.508 -999 -999 -999 -999
2011-09-19 09:47:30 51°21.851 3°6.545 -999 -999 -999 -999
2011-09-19 09:47:40 51°21.867 3°6.591 -999 -999 -999 -999
2011-09-19 09:47:50 51°21.88 3°6.63 -999 -999 -999 -999
2011-09-19 09:48:00 51°21.896 3°6.676 -999 -999 -999 -999
2011-09-19 09:48:10 51°21.911 3°6.723 -999 -999 -999 -999
2011-09-19 09:48:20 51°21.925 3°6.767 -999 -999 -999 -999
2011-09-19 09:48:30 51°21.938 3°6.81 -999 -999 -999 -999
2011-09-19 09:48:40 51°21.952 3°6.854 -999 -999 -999 -999
2011-09-19 09:48:50 51°21.964 3°6.898 -999 -999 -999 -999
2011-09-19 09:49:00 51°21.977 3°6.943 -999 -999 -999 -999
2011-09-19 09:49:10 51°21.983 3°6.98 -999 -999 -999 -999
2011-09-19 09:49:20 51°21.992 3°7.032 -999 -999 -999 -999
2011-09-19 09:49:30 51°21.998 3°7.074 -999 -999 -999 -999
2011-09-19 09:49:40 51°22.006 3°7.126 -999 -999 -999 -999
2011-09-19 09:49:50 51°22.011 3°7.17 -999 -999 -999 -999
2011-09-19 09:50:00 51°22.018 3°7.221 -999 -999 -999 -999
2011-09-19 09:50:10 51°22.025 3°7.264 -999 -999 -999 -999
2011-09-19 09:50:20 51°22.033 3°7.315 -999 -999 -999 -999
2011-09-19 09:50:30 51°22.039 3°7.358 -999 -999 -999 -999
2011-09-19 09:50:40 51°22.047 3°7.408 -999 -999 -999 -999
2011-09-19 09:50:50 51°22.053 3°7.45 -999 -999 -999 -999
2011-09-19 09:51:00 51°22.062 3°7.502 -999 -999 -999 -999
2011-09-19 09:51:10 51°22.068 3°7.544 -999 -999 -999 -999
2011-09-19 09:51:20 51°22.077 3°7.594 -999 -999 -999 -999
2011-09-19 09:51:30 51°22.084 3°7.636 -999 -999 -999 -999
2011-09-19 09:51:40 51°22.095 3°7.686 -999 -999 -999 -999
2011-09-19 09:51:50 51°22.102 3°7.727 -999 -999 -999 -999
2011-09-19 09:52:00 51°22.112 3°7.776 -999 -999 -999 -999
2011-09-19 09:52:10 51°22.118 3°7.818 -999 -999 -999 -999
2011-09-19 09:52:20 51°22.124 3°7.869 -999 -999 -999 -999
2011-09-19 09:52:30 51°22.128 3°7.911 -999 -999 -999 -999
2011-09-19 09:52:40 51°22.132 3°7.962 -999 -999 -999 -999
2011-09-19 09:52:50 51°22.135 3°8.003 -999 -999 -999 -999
2011-09-19 09:53:00 51°22.138 3°8.055 -999 -999 -999 -999
2011-09-19 09:53:10 51°22.143 3°8.106 -999 -999 -999 -999
2011-09-19 09:53:20 51°22.147 3°8.152 -999 -999 -999 -999
2011-09-19 09:53:30 51°22.151 3°8.194 -999 -999 -999 -999
2011-09-19 09:53:40 51°22.156 3°8.245 -999 -999 -999 -999
2011-09-19 09:53:50 51°22.16 3°8.292 -999 -999 -999 -999
2011-09-19 09:54:00 51°22.164 3°8.334 -999 -999 -999 -999
2011-09-19 09:54:10 51°22.167 3°8.385 -999 -999 -999 -999
2011-09-19 09:54:20 51°22.171 3°8.43 -999 -999 -999 -999
2011-09-19 09:54:30 51°22.175 3°8.476 -999 -999 -999 -999
2011-09-19 09:54:40 51°22.18 3°8.522 -999 -999 -999 -999
2011-09-19 09:54:50 51°22.186 3°8.563 -999 -999 -999 -999
2011-09-19 09:55:00 51°22.191 3°8.613 -999 -999 -999 -999
2011-09-19 09:55:10 51°22.197 3°8.659 -999 -999 -999 -999
2011-09-19 09:55:20 51°22.203 3°8.704 -999 -999 -999 -999
2011-09-19 09:55:30 51°22.208 3°8.75 -999 -999 -999 -999
2011-09-19 09:55:40 51°22.213 3°8.796 -999 -999 -999 -999
2011-09-19 09:55:50 51°22.218 3°8.838 -999 -999 -999 -999
2011-09-19 09:56:00 51°22.223 3°8.889 -999 -999 -999 -999
2011-09-19 09:56:10 51°22.226 3°8.927 -999 -999 -999 -999
2011-09-19 09:56:20 51°22.231 3°8.977 -999 -999 -999 -999
2011-09-19 09:56:30 51°22.235 3°9.019 -999 -999 -999 -999
2011-09-19 09:56:40 51°22.24 3°9.07 -999 -999 -999 -999
2011-09-19 09:56:50 51°22.243 3°9.112 -999 -999 -999 -999
2011-09-19 09:57:00 51°22.247 3°9.164 -999 -999 -999 -999
2011-09-19 09:57:10 51°22.248 3°9.206 -999 -999 -999 -999
2011-09-19 09:57:20 51°22.251 3°9.254 -999 -999 -999 -999
2011-09-19 09:57:30 51°22.254 3°9.302 -999 -999 -999 -999
2011-09-19 09:57:40 51°22.255 3°9.354 -999 -999 -999 -999
2011-09-19 09:57:50 51°22.257 3°9.396 -999 -999 -999 -999
2011-09-19 09:58:00 51°22.261 3°9.447 -999 -999 -999 -999
2011-09-19 09:58:10 51°22.265 3°9.49 -999 -999 -999 -999
2011-09-19 09:58:20 51°22.269 3°9.542 -999 -999 -999 -999
2011-09-19 09:58:30 51°22.273 3°9.585 -999 -999 -999 -999
2011-09-19 09:58:40 51°22.276 3°9.638 -999 -999 -999 -999
2011-09-19 09:58:50 51°22.28 3°9.68 -999 -999 -999 -999
2011-09-19 09:59:00 51°22.285 3°9.731 -999 -999 -999 -999
2011-09-19 09:59:10 51°22.288 3°9.773 -999 -999 -999 -999
2011-09-19 09:59:20 51°22.292 3°9.825 -999 -999 -999 -999
2011-09-19 09:59:30 51°22.296 3°9.873 -999 -999 -999 -999
2011-09-19 09:59:40 51°22.301 3°9.921 -999 -999 -999 -999
2011-09-19 09:59:50 51°22.305 3°9.968 -999 -999 -999 -999
2011-09-19 10:00:00 51°22.309 3°10.016 -999 -999 -999 -999
2011-09-19 10:00:10 51°22.312 3°10.059 -999 -999 -999 -999
2011-09-19 10:00:20 51°22.315 3°10.111 -999 -999 -999 -999
2011-09-19 10:00:30 51°22.317 3°10.154 -999 -999 -999 -999
2011-09-19 10:00:40 51°22.319 3°10.207 -999 -999 -999 -999
2011-09-19 10:00:50 51°22.323 3°10.25 -999 -999 -999 -999
2011-09-19 10:01:00 51°22.326 3°10.303 -999 -999 -999 -999
2011-09-19 10:01:10 51°22.329 3°10.35 -999 -999 -999 -999
2011-09-19 10:01:20 51°22.333 3°10.404 -999 -999 -999 -999
2011-09-19 10:01:30 51°22.338 3°10.452 -999 -999 -999 -999
2011-09-19 10:01:40 51°22.341 3°10.501 -999 -999 -999 -999
2011-09-19 10:01:50 51°22.345 3°10.545 -999 -999 -999 -999
2011-09-19 10:02:00 51°22.349 3°10.598 -999 -999 -999 -999
2011-09-19 10:02:10 51°22.352 3°10.642 -999 -999 -999 -999
2011-09-19 10:02:20 51°22.356 3°10.695 -999 -999 -999 -999
2011-09-19 10:02:30 51°22.36 3°10.738 -999 -999 -999 -999
2011-09-19 10:02:40 51°22.364 3°10.792 -999 -999 -999 -999
2011-09-19 10:02:50 51°22.367 3°10.841 -999 -999 -999 -999
2011-09-19 10:03:00 51°22.372 3°10.889 -999 -999 -999 -999
2011-09-19 10:03:10 51°22.376 3°10.938 -999 -999 -999 -999
2011-09-19 10:03:20 51°22.378 3°10.986 -999 -999 -999 -999
2011-09-19 10:03:30 51°22.38 3°11.03 -999 -999 -999 -999
2011-09-19 10:03:40 51°22.383 3°11.084 -999 -999 -999 -999
2011-09-19 10:03:50 51°22.385 3°11.127 -999 -999 -999 -999
2011-09-19 10:04:00 51°22.389 3°11.181 -999 -999 -999 -999
2011-09-19 10:04:10 51°22.393 3°11.219 -999 -999 -999 -999
2011-09-19 10:04:20 51°22.397 3°11.272 -999 -999 -999 -999
2011-09-19 10:04:30 51°22.401 3°11.315 -999 -999 -999 -999
2011-09-19 10:04:40 51°22.405 3°11.368 -999 -999 -999 -999
2011-09-19 10:04:50 51°22.41 3°11.411 -999 -999 -999 -999
2011-09-19 10:05:00 51°22.415 3°11.464 -999 -999 -999 -999
2011-09-19 10:05:10 51°22.419 3°11.508 -999 -999 -999 -999
2011-09-19 10:05:20 51°22.424 3°11.561 -999 -999 -999 -999
2011-09-19 10:05:30 51°22.428 3°11.604 -999 -999 -999 -999
2011-09-19 10:05:40 51°22.43 3°11.658 -999 -999 -999 -999
2011-09-19 10:05:50 51°22.431 3°11.702 -999 -999 -999 -999
2011-09-19 10:06:00 51°22.433 3°11.755 -999 -999 -999 -999
2011-09-19 10:06:10 51°22.434 3°11.798 -999 -999 -999 -999
2011-09-19 10:06:20 51°22.434 3°11.851 -999 -999 -999 -999
2011-09-19 10:06:30 51°22.436 3°11.895 -999 -999 -999 -999
2011-09-19 10:06:40 51°22.441 3°11.948 -999 -999 -999 -999
2011-09-19 10:06:50 51°22.445 3°11.99 -999 -999 -999 -999
2011-09-19 10:07:00 51°22.448 3°12.043 -999 -999 -999 -999
2011-09-19 10:07:10 51°22.451 3°12.086 -999 -999 -999 -999
2011-09-19 10:07:20 51°22.455 3°12.139 -999 -999 -999 -999
2011-09-19 10:07:30 51°22.458 3°12.182 -999 -999 -999 -999
2011-09-19 10:07:40 51°22.465 3°12.234 -999 -999 -999 -999
2011-09-19 10:07:50 51°22.469 3°12.276 -999 -999 -999 -999
2011-09-19 10:08:00 51°22.477 3°12.326 -999 -999 -999 -999
2011-09-19 10:08:10 51°22.486 3°12.379 -999 -999 -999 -999
2011-09-19 10:08:20 51°22.493 3°12.426 -999 -999 -999 -999
2011-09-19 10:08:30 51°22.499 3°12.469 -999 -999 -999 -999
2011-09-19 10:08:40 51°22.506 3°12.521 -999 -999 -999 -999
2011-09-19 10:08:50 51°22.512 3°12.569 -999 -999 -999 -999
2011-09-19 10:09:00 51°22.518 3°12.616 -999 -999 -999 -999
2011-09-19 10:09:10 51°22.523 3°12.66 -999 -999 -999 -999
2011-09-19 10:09:20 51°22.527 3°12.701 -999 -999 -999 -999
2011-09-19 10:09:30 51°22.531 3°12.736 -999 -999 -999 -999
2011-09-19 10:09:40 51°22.537 3°12.774 -999 -999 -999 -999
2011-09-19 10:09:50 51°22.541 3°12.803 -999 -999 -999 -999
2011-09-19 10:10:00 51°22.546 3°12.835 -999 -999 -999 -999
2011-09-19 10:10:10 51°22.55 3°12.862 -999 -999 -999 -999
2011-09-19 10:10:20 51°22.553 3°12.886 -999 -999 -999 -999
2011-09-19 10:10:30 51°22.556 3°12.906 -999 -999 -999 -999
2011-09-19 10:10:40 51°22.559 3°12.93 -999 -999 -999 -999
2011-09-19 10:10:50 51°22.562 3°12.95 -999 -999 -999 -999
2011-09-19 10:11:00 51°22.565 3°12.969 -999 -999 -999 -999
2011-09-19 10:11:10 51°22.567 3°12.985 -999 -999 -999 -999
2011-09-19 10:11:20 51°22.57 3°13.005 -999 -999 -999 -999
2011-09-19 10:11:30 51°22.573 3°13.023 -999 -999 -999 -999
2011-09-19 10:11:40 51°22.575 3°13.044 -999 -999 -999 -999
2011-09-19 10:11:50 51°22.578 3°13.061 -999 -999 -999 -999
2011-09-19 10:12:00 51°22.58 3°13.082 -999 -999 -999 -999
2011-09-19 10:12:10 51°22.582 3°13.1 -999 -999 -999 -999
2011-09-19 10:12:20 51°22.585 3°13.122 -999 -999 -999 -999
2011-09-19 10:12:30 51°22.587 3°13.141 -999 -999 -999 -999
2011-09-19 10:12:40 51°22.589 3°13.164 -999 -999 -999 -999
2011-09-19 10:12:50 51°22.591 3°13.182 -999 -999 -999 -999
2011-09-19 10:13:00 51°22.592 3°13.203 -999 -999 -999 -999
2011-09-19 10:13:10 51°22.594 3°13.218 -999 -999 -999 -999
2011-09-19 10:13:20 51°22.596 3°13.233 -999 -999 -999 -999
2011-09-19 10:13:30 51°22.599 3°13.242 -999 -999 -999 -999
2011-09-19 10:13:40 51°22.604 3°13.251 -999 -999 -999 -999
2011-09-19 10:13:50 51°22.608 3°13.256 -999 -999 -999 -999
2011-09-19 10:14:00 51°22.613 3°13.261 -999 -999 -999 -999
2011-09-19 10:14:10 51°22.616 3°13.264 -999 -999 -999 -999
2011-09-19 10:14:20 51°22.619 3°13.265 -999 -999 -999 -999
2011-09-19 10:14:30 51°22.62 3°13.264 -999 -999 -999 -999
2011-09-19 10:14:40 51°22.621 3°13.262 -999 -999 -999 -999
2011-09-19 10:14:50 51°22.622 3°13.261 -999 -999 -999 -999
2011-09-19 10:15:00 51°22.622 3°13.259 -999 -999 -999 -999
2011-09-19 10:15:10 51°22.623 3°13.258 -999 -999 -999 -999
2011-09-19 10:15:20 51°22.623 3°13.256 -999 -999 -999 -999
2011-09-19 10:15:30 51°22.624 3°13.254 -999 -999 -999 -999
2011-09-19 10:15:40 51°22.625 3°13.251 -999 -999 -999 -999
2011-09-19 10:15:50 51°22.625 3°13.25 -999 -999 -999 -999
2011-09-19 10:16:00 51°22.625 3°13.247 -999 -999 -999 -999
2011-09-19 10:16:10 51°22.625 3°13.245 -999 -999 -999 -999
2011-09-19 10:16:20 51°22.625 3°13.242 -999 -999 -999 -999
2011-09-19 10:16:30 51°22.624 3°13.24 -999 -999 -999 -999
2011-09-19 10:16:40 51°22.624 3°13.237 -999 -999 -999 -999
2011-09-19 10:16:50 51°22.624 3°13.235 -999 -999 -999 -999
2011-09-19 10:17:00 51°22.624 3°13.231 -999 -999 -999 -999
2011-09-19 10:17:10 51°22.624 3°13.229 -999 -999 -999 -999
2011-09-19 10:17:20 51°22.623 3°13.225 -999 -999 -999 -999
2011-09-19 10:17:30 51°22.623 3°13.223 -999 -999 -999 -999
2011-09-19 10:17:40 51°22.623 3°13.22 -999 -999 -999 -999
2011-09-19 10:17:50 51°22.622 3°13.216 -999 -999 -999 -999
2011-09-19 10:18:00 51°22.622 3°13.213 -999 -999 -999 -999
2011-09-19 10:18:10 51°22.621 3°13.21 -999 -999 -999 -999
2011-09-19 10:18:20 51°22.621 3°13.208 -999 -999 -999 -999
2011-09-19 10:18:30 51°22.62 3°13.206 -999 -999 -999 -999
2011-09-19 10:18:40 51°22.62 3°13.203 -999 -999 -999 -999
2011-09-19 10:18:50 51°22.62 3°13.2 -999 -999 -999 -999
2011-09-19 10:19:00 51°22.619 3°13.197 -999 -999 -999 -999
2011-09-19 10:19:10 51°22.619 3°13.195 -999 -999 -999 -999
2011-09-19 10:19:20 51°22.618 3°13.192 -999 -999 -999 -999
2011-09-19 10:19:30 51°22.617 3°13.19 -999 -999 -999 -999
2011-09-19 10:19:40 51°22.617 3°13.187 -999 -999 -999 -999
2011-09-19 10:19:50 51°22.616 3°13.185 -999 -999 -999 -999
2011-09-19 10:20:00 51°22.615 3°13.182 -999 -999 -999 -999
2011-09-19 10:20:10 51°22.615 3°13.18 -999 -999 -999 -999
2011-09-19 10:20:20 51°22.614 3°13.177 -999 -999 -999 -999
2011-09-19 10:20:30 51°22.614 3°13.175 -999 -999 -999 -999
2011-09-19 10:20:40 51°22.613 3°13.173 -999 -999 -999 -999
2011-09-19 10:20:50 51°22.612 3°13.171 -999 -999 -999 -999
2011-09-19 10:21:00 51°22.612 3°13.168 -999 -999 -999 -999
2011-09-19 10:21:10 51°22.611 3°13.166 -999 -999 -999 -999
2011-09-19 10:21:20 51°22.611 3°13.163 -999 -999 -999 -999
2011-09-19 10:21:30 51°22.61 3°13.16 -999 -999 -999 -999
2011-09-19 10:21:40 51°22.609 3°13.157 -999 -999 -999 -999
2011-09-19 10:21:50 51°22.608 3°13.155 -999 -999 -999 -999
2011-09-19 10:22:00 51°22.607 3°13.152 -999 -999 -999 -999
2011-09-19 10:22:10 51°22.607 3°13.15 -999 -999 -999 -999
2011-09-19 10:22:20 51°22.605 3°13.147 -999 -999 -999 -999
2011-09-19 10:22:30 51°22.605 3°13.145 -999 -999 -999 -999
2011-09-19 10:22:40 51°22.603 3°13.142 -999 -999 -999 -999
2011-09-19 10:22:50 51°22.602 3°13.14 -999 -999 -999 -999
2011-09-19 10:23:00 51°22.601 3°13.137 -999 -999 -999 -999
2011-09-19 10:23:10 51°22.6 3°13.134 -999 -999 -999 -999
2011-09-19 10:23:20 51°22.599 3°13.131 -999 -999 -999 -999
2011-09-19 10:23:30 51°22.598 3°13.129 -999 -999 -999 -999
2011-09-19 10:23:40 51°22.596 3°13.126 -999 -999 -999 -999
2011-09-19 10:23:50 51°22.595 3°13.123 -999 -999 -999 -999
2011-09-19 10:24:00 51°22.594 3°13.12 -999 -999 -999 -999
2011-09-19 10:24:10 51°22.593 3°13.118 -999 -999 -999 -999
2011-09-19 10:24:20 51°22.592 3°13.115 -999 -999 -999 -999
2011-09-19 10:24:30 51°22.591 3°13.113 -999 -999 -999 -999
2011-09-19 10:24:40 51°22.59 3°13.11 -999 -999 -999 -999
2011-09-19 10:24:50 51°22.589 3°13.107 -999 -999 -999 -999
2011-09-19 10:25:00 51°22.589 3°13.104 -999 -999 -999 -999
2011-09-19 10:25:10 51°22.588 3°13.102 -999 -999 -999 -999
2011-09-19 10:25:20 51°22.587 3°13.1 -999 -999 -999 -999
2011-09-19 10:25:30 51°22.586 3°13.097 -999 -999 -999 -999
2011-09-19 10:25:40 51°22.585 3°13.094 -999 -999 -999 -999
2011-09-19 10:25:50 51°22.584 3°13.091 -999 -999 -999 -999
2011-09-19 10:26:00 51°22.583 3°13.089 -999 -999 -999 -999
2011-09-19 10:26:10 51°22.583 3°13.086 -999 -999 -999 -999
2011-09-19 10:26:20 51°22.582 3°13.083 -999 -999 -999 -999
2011-09-19 10:26:30 51°22.582 3°13.081 -999 -999 -999 -999
2011-09-19 10:26:40 51°22.583 3°13.079 -999 -999 -999 -999
2011-09-19 10:26:50 51°22.585 3°13.078 -999 -999 -999 -999
2011-09-19 10:27:00 51°22.59 3°13.076 -999 -999 -999 -999
2011-09-19 10:27:10 51°22.595 3°13.075 -999 -999 -999 -999
2011-09-19 10:27:20 51°22.603 3°13.071 -999 -999 -999 -999
2011-09-19 10:27:30 51°22.61 3°13.065 -999 -999 -999 -999
2011-09-19 10:27:40 51°22.62 3°13.056 -999 -999 -999 -999
2011-09-19 10:27:50 51°22.629 3°13.045 -999 -999 -999 -999
2011-09-19 10:28:00 51°22.638 3°13.028 -999 -999 -999 -999
2011-09-19 10:28:10 51°22.645 3°13.011 -999 -999 -999 -999
2011-09-19 10:28:20 51°22.653 3°12.987 -999 -999 -999 -999
2011-09-19 10:28:30 51°22.659 3°12.965 -999 -999 -999 -999
2011-09-19 10:28:40 51°22.668 3°12.934 -999 -999 -999 -999
2011-09-19 10:28:50 51°22.677 3°12.906 -999 -999 -999 -999
2011-09-19 10:29:00 51°22.688 3°12.87 -999 -999 -999 -999
2011-09-19 10:29:10 51°22.699 3°12.84 -999 -999 -999 -999
2011-09-19 10:29:20 51°22.711 3°12.8 -999 -999 -999 -999
2011-09-19 10:29:30 51°22.723 3°12.766 -999 -999 -999 -999
2011-09-19 10:29:40 51°22.737 3°12.723 -999 -999 -999 -999
2011-09-19 10:29:50 51°22.749 3°12.687 -999 -999 -999 -999
2011-09-19 10:30:00 51°22.766 3°12.642 -999 -999 -999 -999
2011-09-19 10:30:10 51°22.784 3°12.595 -999 -999 -999 -999
2011-09-19 10:30:20 51°22.8 3°12.553 -999 -999 -999 -999
2011-09-19 10:30:30 51°22.816 3°12.513 -999 -999 -999 -999
2011-09-19 10:30:40 51°22.836 3°12.463 -999 -999 -999 -999
2011-09-19 10:30:50 51°22.852 3°12.421 -999 -999 -999 -999
2011-09-19 10:31:00 51°22.871 3°12.367 -999 -999 -999 -999
2011-09-19 10:31:10 51°22.889 3°12.317 -999 -999 -999 -999
2011-09-19 10:31:20 51°22.906 3°12.266 -999 -999 -999 -999
2011-09-19 10:31:30 51°22.922 3°12.221 -999 -999 -999 -999
2011-09-19 10:31:40 51°22.942 3°12.165 -999 -999 -999 -999
2011-09-19 10:31:50 51°22.958 3°12.119 -999 -999 -999 -999
2011-09-19 10:32:00 51°22.977 3°12.062 -999 -999 -999 -999
2011-09-19 10:32:10 51°22.993 3°12.01 -999 -999 -999 -999
2011-09-19 10:32:20 51°23.01 3°11.958 -999 -999 -999 -999
2011-09-19 10:32:30 51°23.025 3°11.912 -999 -999 -999 -999
2011-09-19 10:32:40 51°23.043 3°11.854 -999 -999 -999 -999
2011-09-19 10:32:50 51°23.061 3°11.803 -999 -999 -999 -999
2011-09-19 10:33:00 51°23.08 3°11.753 -999 -999 -999 -999
2011-09-19 10:33:10 51°23.096 3°11.714 -999 -999 -999 -999
2011-09-19 10:33:20 51°23.117 3°11.66 -999 -999 -999 -999
2011-09-19 10:33:30 51°23.134 3°11.616 -999 -999 -999 -999
2011-09-19 10:33:40 51°23.154 3°11.561 -999 -999 -999 -999
2011-09-19 10:33:50 51°23.17 3°11.515 -999 -999 -999 -999
2011-09-19 10:34:00 51°23.189 3°11.458 -999 -999 -999 -999
2011-09-19 10:34:10 51°23.205 3°11.412 -999 -999 -999 -999
2011-09-19 10:34:20 51°23.223 3°11.356 -999 -999 -999 -999
2011-09-19 10:34:30 51°23.239 3°11.31 -999 -999 -999 -999
2011-09-19 10:34:40 51°23.257 3°11.254 -999 -999 -999 -999
2011-09-19 10:34:50 51°23.273 3°11.209 -999 -999 -999 -999
2011-09-19 10:35:00 51°23.295 3°11.156 -999 -999 -999 -999
2011-09-19 10:35:10 51°23.312 3°11.112 -999 -999 -999 -999
2011-09-19 10:35:20 51°23.334 3°11.06 -999 -999 -999 -999
2011-09-19 10:35:30 51°23.351 3°11.017 -999 -999 -999 -999
2011-09-19 10:35:40 51°23.372 3°10.963 -999 -999 -999 -999
2011-09-19 10:35:50 51°23.388 3°10.918 -999 -999 -999 -999
2011-09-19 10:36:00 51°23.407 3°10.864 -999 -999 -999 -999
2011-09-19 10:36:10 51°23.422 3°10.818 -999 -999 -999 -999
2011-09-19 10:36:20 51°23.441 3°10.763 -999 -999 -999 -999
2011-09-19 10:36:30 51°23.457 3°10.717 -999 -999 -999 -999
2011-09-19 10:36:40 51°23.477 3°10.664 -999 -999 -999 -999
2011-09-19 10:36:50 51°23.494 3°10.619 -999 -999 -999 -999
2011-09-19 10:37:00 51°23.515 3°10.565 -999 -999 -999 -999
2011-09-19 10:37:10 51°23.532 3°10.521 -999 -999 -999 -999
2011-09-19 10:37:20 51°23.553 3°10.467 -999 -999 -999 -999
2011-09-19 10:37:30 51°23.568 3°10.421 -999 -999 -999 -999
2011-09-19 10:37:40 51°23.586 3°10.365 -999 -999 -999 -999
2011-09-19 10:37:50 51°23.6 3°10.318 -999 -999 -999 -999
2011-09-19 10:38:00 51°23.618 3°10.261 -999 -999 -999 -999
2011-09-19 10:38:10 51°23.636 3°10.204 -999 -999 -999 -999
2011-09-19 10:38:20 51°23.654 3°10.153 -999 -999 -999 -999
2011-09-19 10:38:30 51°23.673 3°10.104 -999 -999 -999 -999
2011-09-19 10:38:40 51°23.695 3°10.061 -999 -999 -999 -999
2011-09-19 10:38:50 51°23.721 3°10.024 -999 -999 -999 -999
2011-09-19 10:39:00 51°23.748 3°9.991 -999 -999 -999 -999
2011-09-19 10:39:10 51°23.777 3°9.961 -999 -999 -999 -999
2011-09-19 10:39:20 51°23.806 3°9.933 -999 -999 -999 -999
2011-09-19 10:39:30 51°23.835 3°9.907 -999 -999 -999 -999
2011-09-19 10:39:40 51°23.865 3°9.881 -999 -999 -999 -999
2011-09-19 10:39:50 51°23.896 3°9.855 -999 -999 -999 -999
2011-09-19 10:40:00 51°23.926 3°9.828 -999 -999 -999 -999
2011-09-19 10:40:10 51°23.95 3°9.806 -999 -999 -999 -999
2011-09-19 10:40:20 51°23.982 3°9.774 -999 -999 -999 -999
2011-09-19 10:40:30 51°24.009 3°9.749 -999 -999 -999 -999
2011-09-19 10:40:40 51°24.042 3°9.718 -999 -999 -999 -999
2011-09-19 10:40:50 51°24.069 3°9.693 -999 -999 -999 -999
2011-09-19 10:41:00 51°24.102 3°9.662 -999 -999 -999 -999
2011-09-19 10:41:10 51°24.13 3°9.638 -999 -999 -999 -999
2011-09-19 10:41:20 51°24.163 3°9.607 -999 -999 -999 -999
2011-09-19 10:41:30 51°24.19 3°9.582 -999 -999 -999 -999
2011-09-19 10:41:40 51°24.224 3°9.554 -999 -999 -999 -999
2011-09-19 10:41:50 51°24.252 3°9.531 -999 -999 -999 -999
2011-09-19 10:42:00 51°24.287 3°9.505 -999 -999 -999 -999
2011-09-19 10:42:10 51°24.315 3°9.485 -999 -999 -999 -999
2011-09-19 10:42:20 51°24.349 3°9.461 -999 -999 -999 -999
2011-09-19 10:42:30 51°24.376 3°9.44 -999 -999 -999 -999
2011-09-19 10:42:40 51°24.41 3°9.415 -999 -999 -999 -999
2011-09-19 10:42:50 51°24.437 3°9.394 -999 -999 -999 -999
2011-09-19 10:43:00 51°24.47 3°9.367 -999 -999 -999 -999
2011-09-19 10:43:10 51°24.499 3°9.34 -999 -999 -999 -999
2011-09-19 10:43:20 51°24.527 3°9.303 -999 -999 -999 -999
2011-09-19 10:43:30 51°24.547 3°9.266 -999 -999 -999 -999
2011-09-19 10:43:40 51°24.567 3°9.216 -999 -999 -999 -999
2011-09-19 10:43:50 51°24.579 3°9.165 -999 -999 -999 -999
2011-09-19 10:44:00 51°24.587 3°9.111 -999 -999 -999 -999
2011-09-19 10:44:10 51°24.591 3°9.056 -999 -999 -999 -999
2011-09-19 10:44:20 51°24.592 3°8.999 -999 -999 -999 -999
2011-09-19 10:44:30 51°24.592 3°8.942 -999 -999 -999 -999
2011-09-19 10:44:40 51°24.59 3°8.885 -999 -999 -999 -999
2011-09-19 10:44:50 51°24.587 3°8.828 -999 -999 -999 -999
2011-09-19 10:45:00 51°24.584 3°8.771 -999 -999 -999 -999
2011-09-19 10:45:10 51°24.583 3°8.725 -999 -999 -999 -999
2011-09-19 10:45:20 51°24.584 3°8.662 -999 -999 -999 -999
2011-09-19 10:45:30 51°24.586 3°8.611 -999 -999 -999 -999
2011-09-19 10:45:40 51°24.589 3°8.549 -999 -999 -999 -999
2011-09-19 10:45:50 51°24.593 3°8.498 -999 -999 -999 -999
2011-09-19 10:46:00 51°24.601 3°8.437 -999 -999 -999 -999
2011-09-19 10:46:10 51°24.608 3°8.388 -999 -999 -999 -999
2011-09-19 10:46:20 51°24.618 3°8.328 -999 -999 -999 -999
2011-09-19 10:46:30 51°24.626 3°8.279 -999 -999 -999 -999
2011-09-19 10:46:40 51°24.636 3°8.22 -999 -999 -999 -999